| time (UTC) | temp F | wind direction | speed knots | gust knots | rain 1hr in | rain 24hr in | rain mn in | humidity % | barometer mb |
| 20260506113956 | 42 | 220 | 0.0 | 0.0 | 0.00 | 0.00 | 0.00 | 70 | 1018.8 |
| 20260506113453 | 42 | 220 | 0.0 | 0.0 | 0.00 | 0.00 | 0.00 | 70 | 1018.9 |
| 20260506112950 | 42 | 220 | 0.0 | 0.0 | 0.00 | 0.00 | 0.00 | 70 | 1018.6 |
| 20260506112448 | 43 | 220 | 0.0 | 0.0 | 0.00 | 0.00 | 0.00 | 70 | 1018.7 |
| 20260506111944 | 43 | 220 | 0.0 | 0.0 | 0.00 | 0.00 | 0.00 | 71 | 1018.6 |
| 20260506111443 | 43 | 220 | 0.0 | 0.0 | 0.00 | 0.00 | 0.00 | 71 | 1018.6 |
| 20260506110939 | 43 | 218 | 0.0 | 0.0 | 0.00 | 0.00 | 0.00 | 71 | 1018.8 |
| 20260506110437 | 43 | 218 | 0.0 | 0.0 | 0.00 | 0.00 | 0.00 | 71 | 1018.7 |
| 20260506105933 | 44 | 91 | 0.0 | 0.0 | 0.00 | 0.00 | 0.00 | 70 | 1018.8 |
| 20260506105430 | 44 | 91 | 0.0 | 0.0 | 0.00 | 0.00 | 0.00 | 70 | 1018.6 |
| 20260506104927 | 44 | 91 | 0.0 | 0.0 | 0.00 | 0.00 | 0.00 | 70 | 1018.9 |
| 20260506104425 | 44 | 91 | 0.0 | 0.0 | 0.00 | 0.00 | 0.00 | 70 | 1018.7 |
| 20260506103923 | 44 | 91 | 0.0 | 0.0 | 0.00 | 0.00 | 0.00 | 70 | 1018.4 |
| 20260506103420 | 44 | 91 | 0.0 | 0.0 | 0.00 | 0.00 | 0.00 | 69 | 1018.6 |
| 20260506102917 | 45 | 91 | 0.0 | 0.0 | 0.00 | 0.00 | 0.00 | 69 | 1018.8 |
| 20260506102416 | 44 | 91 | 0.0 | 0.0 | 0.00 | 0.00 | 0.00 | 69 | 1018.2 |
| 20260506101912 | 44 | 91 | 0.0 | 0.0 | 0.00 | 0.00 | 0.00 | 70 | 1018.3 |
| 20260506101408 | 44 | 91 | 0.0 | 0.0 | 0.00 | 0.00 | 0.00 | 69 | 1018.4 |
| 20260506100906 | 44 | 205 | 0.0 | 0.0 | 0.00 | 0.00 | 0.00 | 69 | 1018.3 |
| 20260506100404 | 45 | 205 | 0.0 | 0.0 | 0.00 | 0.00 | 0.00 | 68 | 1018.6 |
| 20260506095902 | 46 | 190 | 0.0 | 0.0 | 0.00 | 0.00 | 0.00 | 67 | 1018.2 |
| 20260506095400 | 45 | 170 | 0.0 | 0.0 | 0.00 | 0.00 | 0.00 | 68 | 1018.6 |
| 20260506094856 | 45 | 170 | 0.0 | 0.0 | 0.00 | 0.00 | 0.00 | 68 | 1018.6 |
| 20260506094355 | 46 | 170 | 0.0 | 0.0 | 0.00 | 0.00 | 0.00 | 67 | 1018.2 |
| 20260506093852 | 46 | 170 | 0.0 | 0.0 | 0.00 | 0.00 | 0.00 | 67 | 1018.3 |
| 20260506093350 | 46 | 170 | 0.0 | 0.0 | 0.00 | 0.00 | 0.00 | 66 | 1018.3 |
| 20260506092847 | 46 | 170 | 0.0 | 0.0 | 0.00 | 0.00 | 0.00 | 65 | 1018.4 |
| 20260506092345 | 47 | 170 | 0.0 | 0.0 | 0.00 | 0.00 | 0.00 | 65 | 1018.2 |
| 20260506091841 | 48 | 171 | 0.0 | 0.0 | 0.00 | 0.00 | 0.00 | 63 | 1018.2 |
| 20260506091340 | 48 | 171 | 0.0 | 0.0 | 0.00 | 0.00 | 0.00 | 64 | 1018.3 |
| 20260506090836 | 47 | 87 | 0.0 | 0.0 | 0.00 | 0.00 | 0.00 | 64 | 1018.3 |
| 20260506090334 | 48 | 17 | 0.0 | 0.0 | 0.00 | 0.00 | 0.00 | 64 | 1018.2 |
| 20260506085830 | 48 | 15 | 0.0 | 0.0 | 0.00 | 0.00 | 0.00 | 63 | 1018.1 |
| 20260506085326 | 48 | 15 | 0.0 | 0.0 | 0.00 | 0.00 | 0.00 | 63 | 1018.3 |
| 20260506084823 | 48 | 12 | 0.0 | 0.0 | 0.00 | 0.00 | 0.00 | 63 | 1018.1 |
| 20260506084320 | 49 | 6 | 0.0 | 0.0 | 0.00 | 0.00 | 0.00 | 60 | 1018.1 |
| 20260506083817 | 50 | 345 | 0.0 | 0.0 | 0.00 | 0.00 | 0.00 | 59 | 1018.3 |
| 20260506083315 | 50 | 345 | 0.0 | 0.0 | 0.00 | 0.00 | 0.00 | 58 | 1018.2 |
| 20260506082812 | 50 | 343 | 0.0 | 0.0 | 0.00 | 0.00 | 0.00 | 57 | 1018.2 |
| 20260506082308 | 51 | 340 | 0.0 | 0.0 | 0.00 | 0.00 | 0.00 | 56 | 1018.2 |
| 20260506081805 | 52 | 314 | 0.0 | 0.0 | 0.00 | 0.00 | 0.00 | 56 | 1018.3 |
| 20260506081303 | 52 | 286 | 0.0 | 0.0 | 0.00 | 0.00 | 0.00 | 55 | 1018.1 |
| 20260506080800 | 51 | 338 | 0.0 | 0.0 | 0.00 | 0.00 | 0.00 | 55 | 1018.2 |
| 20260506080256 | 51 | 340 | 0.0 | 0.0 | 0.00 | 0.00 | 0.00 | 55 | 1018.3 |
| 20260506073240 | 53 | 295 | 0.0 | 0.0 | 0.00 | 0.00 | 0.00 | 52 | 1018.3 |
| 20260506072737 | 53 | 351 | 0.0 | 0.0 | 0.00 | 0.00 | 0.00 | 53 | 1018.4 |
| 20260506072235 | 53 | 314 | 0.0 | 0.0 | 0.00 | 0.00 | 0.00 | 53 | 1018.4 |
| 20260506071732 | 53 | 344 | 0.0 | 0.0 | 0.00 | 0.00 | 0.00 | 53 | 1018.6 |
| 20260506071230 | 53 | 325 | 0.9 | 0.9 | 0.00 | 0.00 | 0.00 | 53 | 1018.3 |
| 20260506070727 | 53 | 357 | 0.0 | 0.0 | 0.00 | 0.00 | 0.00 | 51 | 1018.3 |
| 20260506070224 | 53 | 10 | 0.0 | 0.0 | 0.00 | 0.00 | 0.00 | 51 | 1018.4 |
| 20260506062201 | 56 | 341 | 0.0 | 0.0 | 0.00 | 0.01 | 0.01 | 43 | 1018.0 |
| 20260506061656 | 56 | 250 | 0.0 | 0.0 | 0.00 | 0.01 | 0.01 | 43 | 1017.9 |
| 20260506061154 | 56 | 273 | 0.9 | 1.7 | 0.00 | 0.01 | 0.01 | 42 | 1017.8 |
| 20260506060653 | 57 | 237 | 0.0 | 0.0 | 0.00 | 0.01 | 0.01 | 42 | 1017.9 |
| 20260506060149 | 56 | 237 | 0.0 | 0.0 | 0.00 | 0.01 | 0.01 | 42 | 1018.0 |
| 20260506051121 | 58 | 287 | 1.7 | 2.6 | 0.00 | 0.01 | 0.01 | 39 | 1017.6 |
| 20260506050620 | 58 | 278 | 0.9 | 1.7 | 0.00 | 0.01 | 0.01 | 40 | 1017.6 |
| 20260506050116 | 58 | 318 | 0.9 | 1.7 | 0.00 | 0.01 | 0.01 | 40 | 1017.5 |
| 20260506045110 | 59 | 287 | 0.0 | 0.9 | 0.00 | 0.01 | 0.01 | 40 | 1017.8 |
| 20260506044608 | 59 | 310 | 0.0 | 0.9 | 0.00 | 0.01 | 0.01 | 42 | 1017.5 |
| 20260506044104 | 59 | 268 | 0.0 | 0.0 | 0.00 | 0.01 | 0.01 | 42 | 1017.4 |
| 20260506043601 | 59 | 278 | 0.0 | 0.0 | 0.00 | 0.01 | 0.01 | 42 | 1017.3 |
| 20260506043100 | 59 | 300 | 0.0 | 0.9 | 0.00 | 0.01 | 0.01 | 42 | 1017.6 |
| 20260506042558 | 59 | 284 | 0.0 | 0.9 | 0.00 | 0.01 | 0.01 | 44 | 1017.3 |
| 20260506042056 | 59 | 288 | 0.0 | 0.0 | 0.00 | 0.01 | 0.01 | 44 | 1017.2 |
| 20260506041554 | 58 | 274 | 0.0 | 0.0 | 0.00 | 0.01 | 0.01 | 45 | 1017.4 |
| 20260506041051 | 59 | 266 | 0.0 | 0.0 | 0.00 | 0.01 | 0.01 | 45 | 1017.1 |
| 20260506040549 | 59 | 257 | 0.0 | 0.0 | 0.00 | 0.01 | 0.01 | 44 | 1017.1 |
| 20260506040044 | 59 | 277 | 0.0 | 0.0 | 0.00 | 0.01 | 0.01 | 44 | 1016.7 |
| 20260506035542 | 59 | 241 | 0.9 | 1.7 | 0.00 | 0.01 | 0.01 | 44 | 1017.2 |
| 20260506035038 | 59 | 277 | 0.0 | 0.9 | 0.00 | 0.01 | 0.01 | 44 | 1017.1 |
| 20260506034536 | 60 | 256 | 0.0 | 0.0 | 0.00 | 0.01 | 0.01 | 44 | 1016.9 |
| 20260506034032 | 60 | 227 | 0.0 | 0.0 | 0.00 | 0.01 | 0.01 | 43 | 1016.9 |
| 20260506033530 | 60 | 267 | 0.0 | 1.7 | 0.00 | 0.01 | 0.01 | 43 | 1016.9 |
| 20260506033027 | 60 | 256 | 0.0 | 0.0 | 0.00 | 0.01 | 0.01 | 43 | 1016.5 |
| 20260506032524 | 61 | 281 | 0.0 | 0.9 | 0.00 | 0.01 | 0.01 | 42 | 1016.4 |
| 20260506032021 | 61 | 245 | 0.0 | 0.0 | 0.00 | 0.01 | 0.01 | 41 | 1016.2 |
| 20260506031519 | 61 | 262 | 0.0 | 0.0 | 0.00 | 0.01 | 0.01 | 40 | 1016.3 |
| 20260506031015 | 62 | 264 | 0.0 | 0.0 | 0.00 | 0.01 | 0.01 | 39 | 1016.3 |
| 20260506030513 | 62 | 229 | 0.0 | 0.9 | 0.00 | 0.01 | 0.01 | 36 | 1016.1 |
| 20260506030010 | 62 | 284 | 0.0 | 0.9 | 0.00 | 0.01 | 0.01 | 36 | 1016.2 |
| 20260506025507 | 62 | 245 | 0.0 | 0.9 | 0.00 | 0.01 | 0.01 | 35 | 1016.1 |
| 20260506025003 | 62 | 312 | 0.9 | 1.7 | 0.00 | 0.01 | 0.01 | 35 | 1016.1 |
| 20260506024500 | 62 | 276 | 0.0 | 0.0 | 0.00 | 0.01 | 0.01 | 35 | 1015.7 |
| 20260506023956 | 63 | 240 | 0.0 | 0.0 | 0.00 | 0.01 | 0.01 | 35 | 1015.7 |
| 20260506023453 | 63 | 268 | 0.0 | 0.0 | 0.00 | 0.01 | 0.01 | 34 | 1015.6 |
| 20260506022950 | 63 | 217 | 1.7 | 1.7 | 0.00 | 0.01 | 0.01 | 34 | 1015.4 |
| 20260506022448 | 64 | 237 | 1.7 | 2.6 | 0.00 | 0.01 | 0.01 | 34 | 1015.5 |
| 20260506021945 | 64 | 242 | 0.0 | 0.0 | 0.00 | 0.01 | 0.01 | 34 | 1015.5 |
| 20260506021442 | 64 | 232 | 0.9 | 1.7 | 0.00 | 0.01 | 0.01 | 34 | 1015.1 |
| 20260506020939 | 64 | 243 | 0.9 | 1.7 | 0.00 | 0.01 | 0.01 | 34 | 1015.3 |
| 20260506020437 | 65 | 212 | 1.7 | 1.7 | 0.00 | 0.01 | 0.01 | 34 | 1015.0 |
| 20260506015934 | 65 | 219 | 0.9 | 1.7 | 0.00 | 0.01 | 0.01 | 33 | 1014.9 |
| 20260506015431 | 65 | 209 | 2.6 | 4.3 | 0.00 | 0.01 | 0.01 | 33 | 1015.1 |
| 20260506014928 | 65 | 257 | 0.0 | 0.9 | 0.00 | 0.01 | 0.01 | 33 | 1014.9 |
| 20260506014425 | 66 | 194 | 1.7 | 1.7 | 0.00 | 0.01 | 0.01 | 32 | 1014.9 |
| 20260506013921 | 66 | 215 | 2.6 | 2.6 | 0.00 | 0.01 | 0.01 | 31 | 1014.7 |
| 20260506013420 | 67 | 184 | 1.7 | 1.7 | 0.00 | 0.01 | 0.01 | 30 | 1014.6 |
| 20260506012916 | 67 | 238 | 1.7 | 1.7 | 0.00 | 0.01 | 0.01 | 29 | 1014.6 |
| 20260506012412 | 67 | 203 | 2.6 | 2.6 | 0.00 | 0.01 | 0.01 | 29 | 1014.5 |
| 20260506011910 | 68 | 250 | 1.7 | 1.7 | 0.00 | 0.01 | 0.01 | 28 | 1014.6 |
| 20260506011407 | 68 | 196 | 1.7 | 1.7 | 0.00 | 0.01 | 0.01 | 28 | 1014.3 |
| 20260506010903 | 68 | 184 | 2.6 | 2.6 | 0.00 | 0.01 | 0.01 | 28 | 1014.5 |
| 20260506010402 | 69 | 197 | 2.6 | 2.6 | 0.00 | 0.01 | 0.01 | 28 | 1014.5 |
| 20260506005858 | 69 | 225 | 1.7 | 1.7 | 0.00 | 0.01 | 0.01 | 28 | 1014.3 |
| 20260506005355 | 69 | 217 | 1.7 | 2.6 | 0.00 | 0.01 | 0.01 | 28 | 1014.1 |
| 20260506004850 | 69 | 240 | 2.6 | 2.6 | 0.00 | 0.01 | 0.01 | 29 | 1014.1 |
| 20260506004349 | 70 | 253 | 2.6 | 4.3 | 0.00 | 0.01 | 0.01 | 29 | 1013.9 |
| 20260506003845 | 69 | 221 | 2.6 | 2.6 | 0.00 | 0.01 | 0.01 | 28 | 1013.8 |
| 20260506003341 | 69 | 228 | 2.6 | 4.3 | 0.00 | 0.01 | 0.01 | 29 | 1013.7 |
| 20260506002838 | 70 | 197 | 2.6 | 2.6 | 0.00 | 0.01 | 0.01 | 28 | 1014.0 |
| 20260506002334 | 70 | 223 | 2.6 | 4.3 | 0.00 | 0.01 | 0.01 | 28 | 1014.1 |
| 20260506001830 | 70 | 217 | 2.6 | 2.6 | 0.00 | 0.01 | 0.01 | 27 | 1013.9 |
| 20260506001327 | 70 | 193 | 2.6 | 2.6 | 0.00 | 0.01 | 0.01 | 26 | 1013.8 |
| 20260506000824 | 71 | 194 | 3.5 | 4.3 | 0.00 | 0.01 | 0.01 | 26 | 1013.9 |
| 20260506000323 | 71 | 204 | 4.3 | 7.0 | 0.00 | 0.01 | 0.01 | 26 | 1013.9 |
| 20260505235818 | 71 | 203 | 2.6 | 4.3 | 0.00 | 0.01 | 0.01 | 26 | 1013.6 |
| 20260505235316 | 71 | 205 | 3.5 | 4.3 | 0.00 | 0.01 | 0.01 | 26 | 1013.7 |
| 20260505234813 | 71 | 211 | 1.7 | 2.6 | 0.00 | 0.01 | 0.01 | 27 | 1013.7 |
| 20260505234311 | 71 | 220 | 2.6 | 4.3 | 0.00 | 0.01 | 0.01 | 26 | 1013.4 |
| 20260505233807 | 71 | 211 | 2.6 | 2.6 | 0.00 | 0.01 | 0.01 | 26 | 1013.8 |
| 20260505233305 | 72 | 225 | 3.5 | 4.3 | 0.00 | 0.01 | 0.01 | 26 | 1013.7 |
| 20260505232802 | 72 | 205 | 4.3 | 5.2 | 0.00 | 0.01 | 0.01 | 25 | 1013.7 |
| 20260505232300 | 71 | 191 | 3.5 | 4.3 | 0.00 | 0.01 | 0.01 | 25 | 1013.8 |
| 20260505231756 | 72 | 221 | 2.6 | 4.3 | 0.00 | 0.01 | 0.01 | 25 | 1013.6 |
| 20260505231255 | 72 | 217 | 3.5 | 4.3 | 0.00 | 0.01 | 0.01 | 24 | 1013.8 |
| 20260505230752 | 72 | 221 | 3.5 | 4.3 | 0.00 | 0.01 | 0.01 | 24 | 1013.6 |
| 20260505230249 | 72 | 252 | 4.3 | 5.2 | 0.00 | 0.01 | 0.01 | 24 | 1013.4 |
| 20260505225746 | 72 | 215 | 3.5 | 5.2 | 0.00 | 0.01 | 0.01 | 24 | 1013.6 |
| 20260505225243 | 72 | 219 | 3.5 | 4.3 | 0.00 | 0.01 | 0.01 | 24 | 1013.7 |
| 20260505224738 | 72 | 211 | 3.5 | 4.3 | 0.00 | 0.01 | 0.01 | 25 | 1013.4 |
| 20260505224236 | 72 | 203 | 4.3 | 6.1 | 0.00 | 0.01 | 0.01 | 24 | 1013.7 |
| 20260505223733 | 73 | 191 | 4.3 | 4.3 | 0.00 | 0.01 | 0.01 | 25 | 1013.7 |
| 20260505223229 | 72 | 194 | 2.6 | 2.6 | 0.00 | 0.01 | 0.01 | 25 | 1013.8 |
| 20260505222725 | 72 | 191 | 4.3 | 5.2 | 0.00 | 0.01 | 0.01 | 25 | 1013.8 |
| 20260505222221 | 72 | 226 | 3.5 | 4.3 | 0.00 | 0.01 | 0.01 | 26 | 1013.9 |
| 20260505221719 | 73 | 228 | 2.6 | 2.6 | 0.00 | 0.01 | 0.01 | 27 | 1013.9 |
| 20260505221215 | 72 | 180 | 2.6 | 2.6 | 0.00 | 0.01 | 0.01 | 27 | 1014.0 |
| 20260505220712 | 71 | 189 | 4.3 | 6.1 | 0.00 | 0.01 | 0.01 | 26 | 1014.1 |
| 20260505220210 | 72 | 202 | 3.5 | 6.1 | 0.00 | 0.01 | 0.01 | 26 | 1014.0 |
| 20260505215708 | 72 | 223 | 3.5 | 5.2 | 0.00 | 0.01 | 0.01 | 26 | 1014.0 |
| 20260505215206 | 72 | 190 | 5.2 | 7.8 | 0.00 | 0.01 | 0.01 | 27 | 1014.5 |
| 20260505214703 | 72 | 186 | 2.6 | 2.6 | 0.00 | 0.01 | 0.01 | 28 | 1014.3 |
| 20260505214200 | 71 | 186 | 2.6 | 4.3 | 0.00 | 0.01 | 0.01 | 29 | 1014.6 |
| 20260505213658 | 72 | 227 | 3.5 | 5.2 | 0.00 | 0.01 | 0.01 | 29 | 1014.6 |
| 20260505213155 | 72 | 216 | 3.5 | 4.3 | 0.00 | 0.01 | 0.01 | 29 | 1014.6 |
| 20260505212650 | 71 | 182 | 3.5 | 4.3 | 0.00 | 0.01 | 0.01 | 31 | 1014.2 |
| 20260505212148 | 72 | 225 | 3.5 | 4.3 | 0.00 | 0.01 | 0.01 | 30 | 1014.6 |
| 20260505211645 | 72 | 218 | 3.5 | 6.1 | 0.00 | 0.01 | 0.01 | 30 | 1014.7 |
| 20260505211142 | 72 | 211 | 3.5 | 5.2 | 0.00 | 0.01 | 0.01 | 30 | 1014.7 |
| 20260505210639 | 72 | 244 | 3.5 | 4.3 | 0.00 | 0.01 | 0.01 | 31 | 1015.1 |
| 20260505210135 | 73 | 200 | 3.5 | 4.3 | 0.00 | 0.01 | 0.01 | 31 | 1015.0 |
| 20260505205633 | 72 | 195 | 5.2 | 8.7 | 0.00 | 0.01 | 0.01 | 31 | 1015.0 |
| 20260505205131 | 72 | 195 | 3.5 | 6.1 | 0.00 | 0.01 | 0.01 | 31 | 1014.7 |
| 20260505204627 | 71 | 226 | 3.5 | 4.3 | 0.00 | 0.01 | 0.01 | 32 | 1015.0 |
| 20260505204125 | 72 | 174 | 6.1 | 8.7 | 0.00 | 0.01 | 0.01 | 30 | 1015.1 |
| 20260505203621 | 71 | 148 | 3.5 | 5.2 | 0.00 | 0.01 | 0.01 | 32 | 1015.1 |
| 20260505203119 | 71 | 195 | 3.5 | 5.2 | 0.00 | 0.01 | 0.01 | 32 | 1015.0 |
| 20260505202615 | 71 | 207 | 3.5 | 4.3 | 0.00 | 0.01 | 0.01 | 33 | 1015.3 |
| 20260505202111 | 71 | 213 | 3.5 | 4.3 | 0.00 | 0.01 | 0.01 | 35 | 1015.3 |
| 20260505201607 | 70 | 169 | 3.5 | 4.3 | 0.00 | 0.01 | 0.01 | 34 | 1015.3 |
| 20260505201105 | 71 | 191 | 3.5 | 4.3 | 0.00 | 0.01 | 0.01 | 33 | 1015.0 |
| 20260505200603 | 70 | 204 | 3.5 | 4.3 | 0.00 | 0.01 | 0.01 | 34 | 1015.0 |
| 20260505200100 | 70 | 179 | 6.1 | 12.2 | 0.00 | 0.01 | 0.01 | 35 | 1015.4 |
| 20260505195556 | 70 | 176 | 3.5 | 4.3 | 0.00 | 0.01 | 0.01 | 37 | 1015.5 |
| 20260505195054 | 71 | 177 | 3.5 | 4.3 | 0.00 | 0.01 | 0.01 | 34 | 1015.4 |
| 20260505194550 | 70 | 209 | 2.6 | 4.3 | 0.00 | 0.01 | 0.01 | 36 | 1015.7 |
| 20260505194046 | 71 | 152 | 6.1 | 7.0 | 0.00 | 0.01 | 0.01 | 34 | 1015.6 |
| 20260505193543 | 70 | 220 | 1.7 | 1.7 | 0.00 | 0.01 | 0.01 | 35 | 1015.8 |
| 20260505193040 | 70 | 187 | 2.6 | 4.3 | 0.00 | 0.01 | 0.01 | 36 | 1015.8 |
| 20260505192539 | 69 | 213 | 2.6 | 4.3 | 0.00 | 0.01 | 0.01 | 38 | 1016.1 |
| 20260505192036 | 70 | 204 | 2.6 | 4.3 | 0.00 | 0.01 | 0.01 | 36 | 1016.3 |
| 20260505191534 | 70 | 228 | 3.5 | 4.3 | 0.00 | 0.01 | 0.01 | 37 | 1016.2 |
| 20260505191032 | 70 | 231 | 1.7 | 2.6 | 0.00 | 0.01 | 0.01 | 36 | 1016.4 |
| 20260505190526 | 71 | 204 | 2.6 | 4.3 | 0.00 | 0.01 | 0.01 | 36 | 1016.1 |
| 20260505190022 | 70 | 206 | 2.6 | 2.6 | 0.00 | 0.01 | 0.01 | 35 | 1016.4 |
| 20260505185520 | 69 | 136 | 0.0 | 1.7 | 0.00 | 0.01 | 0.01 | 39 | 1016.5 |
| 20260505185016 | 69 | 199 | 3.5 | 4.3 | 0.00 | 0.01 | 0.01 | 36 | 1016.4 |
| 20260505184513 | 69 | 248 | 0.9 | 1.7 | 0.00 | 0.01 | 0.01 | 37 | 1016.5 |
| 20260505184009 | 68 | 209 | 1.7 | 2.6 | 0.00 | 0.01 | 0.01 | 40 | 1016.4 |
| 20260505183506 | 69 | 138 | 0.9 | 1.7 | 0.00 | 0.01 | 0.01 | 39 | 1016.9 |
| 20260505183004 | 68 | 195 | 1.7 | 1.7 | 0.00 | 0.01 | 0.01 | 41 | 1016.7 |
| 20260505182500 | 68 | 183 | 2.6 | 4.3 | 0.00 | 0.01 | 0.01 | 41 | 1016.6 |
| 20260505181956 | 67 | 160 | 0.9 | 1.7 | 0.00 | 0.01 | 0.01 | 43 | 1016.7 |
| 20260505181453 | 68 | 178 | 2.6 | 2.6 | 0.00 | 0.01 | 0.01 | 41 | 1017.0 |
| 20260505180950 | 67 | 167 | 1.7 | 1.7 | 0.00 | 0.01 | 0.01 | 44 | 1016.6 |
| 20260505180446 | 66 | 182 | 3.5 | 4.3 | 0.00 | 0.01 | 0.01 | 43 | 1016.9 |
| 20260505175943 | 66 | 233 | 0.9 | 1.7 | 0.00 | 0.01 | 0.01 | 44 | 1016.9 |
| 20260505175439 | 65 | 243 | 0.0 | 0.0 | 0.00 | 0.01 | 0.01 | 45 | 1017.0 |
| 20260505174936 | 65 | 201 | 0.9 | 1.7 | 0.00 | 0.01 | 0.01 | 50 | 1017.0 |
| 20260505174434 | 65 | 14 | 1.7 | 1.7 | 0.00 | 0.01 | 0.01 | 50 | 1016.7 |
| 20260505173929 | 65 | 9 | 0.0 | 0.0 | 0.00 | 0.01 | 0.01 | 51 | 1017.0 |
| 20260505173426 | 64 | 22 | 0.0 | 0.0 | 0.00 | 0.01 | 0.01 | 51 | 1017.0 |
| 20260505172923 | 64 | 188 | 0.0 | 0.0 | 0.00 | 0.01 | 0.01 | 51 | 1017.0 |
| 20260505172422 | 63 | 53 | 0.0 | 0.0 | 0.00 | 0.01 | 0.01 | 54 | 1016.9 |
| 20260505171920 | 63 | 76 | 2.6 | 2.6 | 0.00 | 0.01 | 0.01 | 53 | 1017.2 |
| 20260505171418 | 61 | 85 | 0.9 | 1.7 | 0.00 | 0.01 | 0.01 | 55 | 1016.7 |
| 20260505170914 | 61 | 59 | 1.7 | 4.3 | 0.00 | 0.01 | 0.01 | 58 | 1017.0 |
| 20260505170411 | 61 | 75 | 2.6 | 2.6 | 0.00 | 0.01 | 0.01 | 58 | 1017.0 |
| 20260505165906 | 60 | 125 | 1.7 | 1.7 | 0.00 | 0.01 | 0.01 | 61 | 1016.7 |
| 20260505165403 | 60 | 86 | 2.6 | 4.3 | 0.00 | 0.01 | 0.01 | 61 | 1016.7 |
| 20260505164858 | 60 | 96 | 0.9 | 1.7 | 0.00 | 0.01 | 0.01 | 64 | 1017.1 |
| 20260505164355 | 59 | 129 | 2.6 | 4.3 | 0.00 | 0.01 | 0.01 | 64 | 1017.2 |
| 20260505163853 | 60 | 118 | 0.9 | 1.7 | 0.00 | 0.01 | 0.01 | 64 | 1017.2 |
| 20260505163352 | 59 | 107 | 1.7 | 1.7 | 0.00 | 0.01 | 0.01 | 63 | 1017.0 |
| 20260505162850 | 59 | 96 | 0.0 | 0.9 | 0.00 | 0.01 | 0.01 | 66 | 1017.0 |
| 20260505162345 | 59 | 63 | 0.9 | 1.7 | 0.05 | 0.01 | 0.01 | 66 | 1017.2 |
| 20260505161843 | 58 | 117 | 0.9 | 1.7 | 0.00 | 0.00 | 0.00 | 69 | 1017.0 |
| 20260505161340 | 58 | 148 | 0.9 | 1.7 | 0.00 | 0.00 | 0.00 | 69 | 1017.0 |
| 20260505160837 | 58 | 107 | 0.9 | 2.6 | 0.00 | 0.00 | 0.00 | 70 | 1017.0 |
| 20260505160335 | 58 | 58 | 0.0 | 0.0 | 0.00 | 0.00 | 0.00 | 70 | 1017.0 |
| 20260505153314 | 57 | 121 | 0.0 | 0.0 | 0.00 | 0.00 | 0.00 | 70 | 1016.9 |
| 20260505152811 | 57 | 80 | 1.7 | 1.7 | 0.00 | 0.00 | 0.00 | 71 | 1016.7 |
| 20260505152308 | 57 | 72 | 0.9 | 0.9 | 0.00 | 0.00 | 0.00 | 71 | 1016.5 |
| 20260505151802 | 56 | 77 | 0.0 | 0.0 | 0.00 | 0.00 | 0.00 | 72 | 1016.7 |
| 20260505151259 | 56 | 130 | 0.0 | 0.0 | 0.00 | 0.00 | 0.00 | 73 | 1016.6 |
| 20260505150756 | 56 | 81 | 0.0 | 0.0 | 0.00 | 0.00 | 0.00 | 74 | 1016.6 |
| 20260505150253 | 55 | 117 | 1.7 | 2.6 | 0.00 | 0.00 | 0.00 | 75 | 1016.5 |
| 20260505140217 | 55 | 119 | 0.0 | 1.7 | 0.00 | 0.00 | 0.00 | 67 | 1016.3 |
| 20260505130141 | 56 | 80 | 0.9 | 0.9 | 0.00 | 0.00 | 0.00 | 62 | 1015.4 |
| 20260505124631 | 55 | 113 | 1.7 | 1.7 | 0.00 | 0.00 | 0.00 | 65 | 1015.6 |
| 20260505124128 | 54 | 110 | 1.7 | 1.7 | 0.00 | 0.00 | 0.00 | 68 | 1015.0 |
| 20260505123623 | 54 | 98 | 0.0 | 0.0 | 0.00 | 0.00 | 0.00 | 76 | 1015.0 |
| 20260505123120 | 55 | 74 | 0.0 | 0.9 | 0.00 | 0.00 | 0.00 | 80 | 1015.0 |
| 20260505122617 | 56 | 68 | 0.0 | 0.0 | 0.00 | 0.00 | 0.00 | 80 | 1015.5 |
| 20260505122115 | 56 | 75 | 0.0 | 0.0 | 0.00 | 0.00 | 0.00 | 80 | 1015.6 |
| 20260505121611 | 56 | 57 | 0.0 | 0.0 | 0.00 | 0.00 | 0.00 | 80 | 1015.6 |
| 20260505121108 | 56 | 57 | 0.0 | 0.0 | 0.00 | 0.00 | 0.00 | 79 | 1015.6 |
| 20260505120604 | 56 | 57 | 0.0 | 0.0 | 0.00 | 0.00 | 0.00 | 78 | 1015.6 |
| 20260505120100 | 56 | 57 | 0.0 | 0.0 | 0.00 | 0.00 | 0.00 | 78 | 1015.5 |
| 20260505115554 | 56 | 60 | 0.9 | 1.7 | 0.00 | 0.00 | 0.00 | 77 | 1015.4 |
| 20260505115051 | 56 | 51 | 0.9 | 1.7 | 0.00 | 0.00 | 0.00 | 75 | 1015.4 |
| 20260505114543 | 56 | 54 | 0.0 | 0.9 | 0.00 | 0.00 | 0.00 | 75 | 1015.6 |